Preview of NWS' New Version of Forecast
This preview is not operational and should not be used for support decisions.

Regional Weather Roundup (RWR)

Issued by National Weather Service (NWS)

                            
000
ASPQ40 PGUM 152310
RWRPQ 
WEATHER ROUNDUP FOR THE MARIANAS AND MICRONESIA
NATIONAL WEATHER SERVICE TIYAN GU
900 AM CHST SAT FEB 16 2019

GUZ001>004-160000-
MARIANA ISLANDS-
  
CITY           SKY/WX    TMP DP  RH WIND       PRES   REMARKS
GUAM AIRPORT   MOSUNNY   82  72  69 NE17      30.05R                  
ANDERSEN AFB   PTSUNNY   79  68  69 NE17G23   30.05S                  
ROTA AIRPORT   MOSUNNY   79  68  69 E8        30.04R                  
TINIAN AP      MOSUNNY  N/A N/A N/A E16       30.04R                  
SAIPAN AP      MOSUNNY   82  66  57 E21       30.05R                  

$$

PMZ161-160000-
REPUBLIC OF PALAU-
  
CITY           SKY/WX    TMP DP  RH WIND       PRES   REMARKS
KOROR AP       MOSUNNY   79  72  78 NE10      29.98R                  
KOROR WSO      NOT AVBL                                               

$$

PMZ171>174-160000-
FEDERATED STATES OF MICRONESIA-
  
CITY           SKY/WX    TMP DP  RH WIND       PRES   REMARKS
YAP AIRPORT    PTSUNNY   84  75  74 VRB7      29.96R HX  92           
CHUUK AP       CLOUDY    82  77  83 NE12G26   29.91R HX  91           
POHNPEI AP     CLOUDY    84  77  79 E12       29.87R HX  94           
POHNPEI WSO    PTSUNNY   84  73  70 NE7       29.91S HX  91           
KOSRAE AP      CLOUDY    82  75  78 N23       29.80F                  

$$

PMZ181-160000-
REPUBLIC OF THE MARSHALL ISLANDS-
  
CITY           SKY/WX    TMP DP  RH WIND       PRES   REMARKS
KWAJALEIN AP   PTSUNNY   84  75  74 NE21G29   29.83F HX  92           
MAJURO AP      PTSUNNY   84  77  79 NE14      29.81F HX  94           
MAJURO WSO     PTSUNNY   84  75  74 E6        29.80S HX  92           

$$